Current weather by "City, St" or "zip code"  
 

Current Conditions: Hook Field Municipal Airport, OH

Overcast


55.0 F

Last Updated on Oct 23 2020, 10:50 pm EDT
Humidity: 91%
Wind Speed: N 9.2 G 18.4 mph
Barometer 30.06 in
Dewpoint: 52.7 F
Visibility: 10.00 mi
Precip: --
Heat Index: NA
Wind Chill: 52 F
Current conditions at:

Hook Field Municipal Airport, OH (KMWO)

Lat: 39.531 Lon: 84.3953

Local Radar Image active severe weather and emergency alerts image image weather storm and storm spotter reports image weather observation monitoring service image
Local
Radar
Active
Alerts
Storm Reports Obs
Monitoring

Sign-up For Email & Text Message Weather Alert Notification Services



Advertise Here

Observation History for Hook Field Municipal Airport, OH


Time Wind
(mph)
Vis
(mi)
Weather Precip (in) Temperature (F) Relative
Humidity
Wind
Chill
(F)
Heat
Index
(F)
Pressure
Air Dwpt altimeter
(in)
sea level
(mb)
Rmks
10:50 pm EDT N 9.2 G 18.4 10.00 Overcast -- 55.0 52.7 91% 52 NA 30.06 M
9:55 pm EDT N 13.8 10.00 Overcast -- 59.0 57.7 94% 56 NA 30.01 M
8:55 pm EDT W 9.2 10.00 Light Rain 00.02 64.0 64.4 100% NA NA 29.99 M
7:55 pm EDT W 9.2 5.00 Thunderstorm Heavy Rain Fog/Mist 00.55 64.0 63.9 99% NA NA 29.97 M
7:35 pm EDT NW 20.7 G 26.5 4.00 Thunderstorm Heavy Rain Fog/Mist and Breezy 00.55 64.0 63.3 98% NA NA 29.95 M
6:55 pm EDT SW 12.7 10.00 Thunderstorm Light Rain -- 72.0 66.4 83% NA NA 29.93 M
5:55 pm EDT W 9.2 10.00 Mostly Cloudy -- 76.0 65.1 69% NA NA 29.92 M
4:55 pm EDT SW 16.1 10.00 Partly Cloudy -- 78.0 65.3 64% NA NA 29.92 M
3:55 pm EDT SW 10.4 10.00 Fair -- 77.0 66.7 72% NA NA 29.93 M
3:35 pm EDT W 8.1 10.00 Light Rain -- 75.0 67.6 77% NA NA 29.94 M
2:55 pm EDT W 15.0 G 19.6 10.00 Partly Cloudy -- 76.0 65.7 70% NA NA 29.97 M
1:55 pm EDT SW 18.4 G 21.9 10.00 Fair -- 78.0 66.0 67% NA NA 29.98 M
12:55 pm EDT SW 21.9 10.00 Partly Cloudy and Breezy -- 77.0 65.7 68% NA NA 30.02 M
12:35 pm EDT W 12.7 G 21.9 10.00 Partly Cloudy -- 76.0 65.5 69% NA NA 30.02 M
11:55 am EDT SW 17.3 G 20.7 10.00 Partly Cloudy -- 74.0 64.4 73% NA NA 30.03 M
10:55 am EDT SW 9.2 10.00 Mostly Cloudy -- 69.0 63.0 81% NA NA 30.05 M
10:35 am EDT SW 9.2 10.00 Mostly Cloudy -- 68.0 62.6 84% NA NA 30.05 M
9:55 am EDT SW 6.9 10.00 Overcast -- 66.0 62.1 88% NA NA 30.06 M
8:55 am EDT N 0.0 10.00 Mostly Cloudy -- 59.0 % NA NA 30.06 M
7:55 am EDT N 0.0 10.00 Overcast -- 54.0 % NA NA 30.06 M
6:55 am EDT N 0.0 2.50 Fog/Mist -- 54.0 % NA NA 30.06 M
5:55 am EDT N 0.0 1.25 Fog/Mist -- 54.0 % NA NA 30.05 M
4:55 am EDT N 0.0 5.00 Fair with Haze -- 54.0 % NA NA 30.04 M
3:55 am EDT N 0.0 1.25 Fog/Mist -- 54.0 % NA NA 30.04 M

Regional Weather Observation


Hook Field Municipal Airport, OH (KMWO)

Overcast
55.0 F

Dayton, Dayton-Wright Brothers Airport, OH (KMGY)

Overcast
55.0 F

Dayton / Wright-Patterson Air Force Base, OH (KFFO)

Overcast
54.0 F

Butler County Regional Airport, OH (KHAO)

Overcast
55.0 F

Cincinnati, Cincinnati Municipal Airport Lunken Field, OH (KLUK)

Mostly Cloudy
59.0 F

Cincinnati/Northern Kentucky International Airport, KY (KCVG)

Overcast
56.0 F